669  
ASUS41 KAKQ 232015  
RWRAKQ  
 
REGIONAL WEATHER ROUNDUP  
NATIONAL WEATHER SERVICE WAKEFIELD VA  
300 PM EST FRI FEB 23 2018  
 
NOTE: "FAIR" INDICATES FEW OR NO CLOUDS BELOW 12,000 FEET WITH NO  
SIGNIFICANT WEATHER AND/OR S TO VISIBILITY
. * = DENOTES  
STATION MAY NOT REPORT PRECIPITATION (E.G., RAIN,SNOW,ETC.),
 
THUNDER OR FOG.  
 
VAZ042-051-052>054-056-232100-  
NORTHERN VIRGINIA  
 
CITY SKY/WX TMP DP RH WIND PRES REMARKS
 
WASH NATIONAL CLOUDY 46 43 89 S7 30.41F  
DULLES CLOUDY 44 42 93 S8 30.38F FOG  
FORT BELVOIR CLOUDY 46 41 85 S7 30.40F  
QUANTICO CLOUDY 46 43 89 SW8 30.41F  
FREDERICKSBRG* CLOUDY 47 47 100 S3 30.40F  
STAFFORD* CLOUDY 47 47 98 SW5 30.45F  
WARRENTON CLOUDY 48 42 80 S7 30.38F  
CULPEPER* CLOUDY 47 43 85 S5 30.39F  
MANASSAS* CLOUDY 46 43 89 S9 30.39F  
LEESBURG* CLOUDY 41 41 100 S10 30.38F  
WINCHESTER CLOUDY 45 41 87 S5 30.35F  
FRONT ROYAL* CLOUDY 52 45 76 W3 30.31F  
LURAY* MOCLDY 54 48 82 SW9 30.31F  

 
 
VAZ048-049-060>072-079>083-232100-  
CENTRAL AND SOUTH CENTRAL VIRGINIA  
 
CITY SKY/WX TMP DP RH WIND PRES REMARKS
 
RICHMOND CLOUDY 49 45 86 CALM 30.42F  
CHESTERFIELD* CLOUDY 50 45 83 CALM 30.42F  
PETERSBURG* CLOUDY 49 44 81 CALM 30.43F  
HANOVER CLOUDY 47 45 93 CALM 30.42F  
TAPPAHANNOCK* CLOUDY 47 46 93 CALM 30.43F  
QUINTON* CLOUDY 49 46 90 SE6 30.42F  
CHARLOTTSVILLE CLOUDY 49 44 83 SW5 30.38F  
GORDONSVILLE* CLOUDY 47 45 92 SW6 30.38F  
ORANGE* CLOUDY 46 43 87 CALM 30.38F  
LOUISA* CLOUDY 47 44 90 SW6 30.44F  
BUMPASS* NOT AVBL  
FARMVILLE* CLOUDY 51 51 100 S3 30.39F  
CREWE* CLOUDY 50 50 100 CALM 30.41F  
FORT PICKETT* CLOUDY 52 49 89 SE5 30.41F  
CHASE CITY* CLOUDY 55 51 88 CALM 30.41F  
CLARKSVILLE* CLOUDY 54 50 87 CALM 30.41F  
SOUTH HILL* CLOUDY 55 50 85 CALM 30.47F  
LAWRENCEVILLE* CLOUDY 53 47 81 CALM 30.42F  
EMPORIA* CLOUDY 52 46 82 CALM 30.44S  

 
 
VAZ088>098-232100-  
SOUTHEAST VIRGINIA  
 
CITY SKY/WX TMP DP RH WIND PRES REMARKS
 
NORFOLK CLOUDY 48 46 93 N6 30.41F FOG  
VIRGINIA BEACH CLOUDY 50 46 86 N8 30.40F  
NORFOLK NAVAL CLOUDY 50 46 86 N5 30.43S  
WEST POINT* CLOUDY 49 46 90 CALM 30.44F  
SALUDA* CLOUDY 48 48 100 NW3 30.43S  
NEWPORT NEWS CLOUDY 52 47 83 NW6 30.42F  
LANGLEY AFB CLOUDY 51 49 92 NE3 30.42S  
FORT EUSTIS CLOUDY 50 48 92 NW5 30.40F  
WILLIAMSBURG* PTSUNNY 55 48 76 W6 30.43F  
HR EXEC AP* CLOUDY 55 50 83 VRB3 30.42F  
FRANKLIN* CLOUDY 55 49 83 CALM 30.42F  
US460-WAKEFLD CLOUDY 53 48 83 CALM 30.43S  

 
 
VAZ020-022-025-037-045-232100-  
WEST CENTRAL AND SOUTHWEST VIRGINIA  
 
CITY SKY/WX TMP DP RH WIND PRES REMARKS
 
STAUNTON* CLOUDY 56 49 74 S7 30.34F  
WAYNESBORO* FAIR 56 47 72 E3 30.33F  
HOT SPRINGS VA FAIR 65 51 60 W14 30.35F  
LYNCHBURG CLOUDY 50 45 83 S5 30.39F  
DANVILLE CLOUDY 51 50 96 CALM 30.42F  
SOUTH BOSTON* CLOUDY 53 49 86 CALM 30.42F  
MARTINSVILLE CLOUDY 52 47 84 SE3 30.42F  
ROANOKE CLOUDY 52 46 80 CALM 30.39F  
BLACKSBURG FAIR 66 52 61 E6 30.36F  
DUBLIN* FAIR 69 54 59 NE7 30.34F  
MARION* FAIR 76 46 34 W14G20 30.34F  
HILLSVILLE* FAIR 68 55 64 S9G20 30.34F  
RICHLANDS* FAIR 73 51 44 W9 30.33F  
WISE* FAIR 73 54 49 SW15 30.34F  
ABINGDON* PTSUNNY 78 53 42 W8 30.32F  

 
 
MDZ021>025-VAZ099-100-232100-  
SOUTHERN MARYLAND AND THE DELMARVA PENINSULA  
 
CITY SKY/WX TMP DP RH WIND PRES REMARKS
 
PATUXENT RIVER DRIZZLE 44 44 100 E3 30.41F FOG  
BAY BRIDGE APT CLOUDY 43 41 93 NW5 30.41F FOG  
LEONARDTOWN CLOUDY 43 43 100 CALM 30.42F  
DOVER CLOUDY 44 44 97 E7 30.40F FOG  
GEORGETOWN CLOUDY 45 43 93 E5 30.42F FOG  
EASTON CLOUDY 46 45 93 SE7 30.43F FOG  
CAMBRIDGE CLOUDY 46 45 93 E3 30.40F FOG  
SALISBURY CLOUDY 46 46 100 NE5 30.41F FOG  
OCEAN CITY CLOUDY 46 46 100 N7 30.41F FOG  
WALLOPS ISLAND CLOUDY 53 52 96 N3 30.41F FOG  
ACCOMACK* CLOUDY 48 47 97 NW8 30.42S FOG  

 
 
NCZ012>017-030>032-232100-  
NORTH CENTRAL AND EASTERN NORTH CAROLINA  
 
CITY SKY/WX TMP DP RH WIND PRES REMARKS
 
ROANOKE RAPIDS CLOUDY 55 52 88 CALM 30.42F  
RALEIGH FAIR 68 57 68 CALM 30.39F  
ELIZABETH CITY CLOUDY 60 56 86 CALM 30.40F  
AHOSKIE* PTSUNNY 57 52 82 N3 30.42S  
EDENTON* FAIR 66 56 71 NW3 30.40F  
CURRITUCK* CLOUDY 55 50 84 CALM 30.41F  
KILL DEVIL HLS CLOUDY N/A N/A N/A CALM 30.40F  
MANTEO PTSUNNY 55 52 89 N3 30.41F  
CAPE HATTERAS FAIR 64 58 80 N6 30.41F  
TARBORO* NOT AVBL  
GOLDSBORO FAIR 76 60 56 NW5 30.36F  
WASHINGTON FAIR 73 58 60 SW5 30.39F  
GREENVILLE FAIR 72 57 60 N3 30.39F  
NEW BERN FAIR 73 61 65 N3 30.39F  
WILMINGTON PTSUNNY 68 62 81 SE9 30.39F  

 
 
VAZ048-232100-  
ELSEWHERE  
 
CITY SKY/WX TMP DP RH WIND PRES REMARKS
 
HARRISBURG PA LGT RAIN 41 39 93 SE8 30.37F VSB 1  
BALTIMORE CLOUDY 44 42 93 S6 30.39F  
ANNAPOLIS CLOUDY 44 43 96 E3 30.41F  
ANDREWS AFB CLOUDY 45 42 91 S6 30.39F  
PHILADELPHIA DRIZZLE 42 41 96 NE6 30.41F FOG  
HENDERSON NC CLOUDY 55 49 80 S5 30.41F  
GREENSBORO PTSUNNY 61 54 77 NE7 30.38F  
ROCKY MOUNT FAIR 64 54 69 NW5 30.40F  

 
 
VAZ100-232100-  
MARINE  
 
STATION/POSITION TIME TEMP WIND PRES WAVE SWELL
 
AIR SEA DIR/SP/G HT/PER HT/PER  
(UTC) (F) (DEG/KT/KT) (MB) (FT/S) (FT/S)  
BRANDYWINE LGT 1936 43 50/ 5/ 6 1030.5F  
CAPE MAY NJ 1942 44 44 70/ 4/ 7 1029.5F  
LEWES DE 1936 43 43 70/ 5/ 5 1030.1F  
15NM E FENWICK I 1950 44 43 340/ 8/ 10 1029.8F 6/ 8 7/ 8  
OCEAN-CITY-INLET 1936 43 42 20/ 6/ 9 1030.3F  
WACHAPREAGUE VA 1936 50 51 20/ 2/ 5 1029.8F  
THOMAS POINT MD 2000 41 42 CALM N/A  
GOOSES REEF MD 2000 42 42 CALM / 2 1035.4  
COVE POINT MD 1936 41 10/ 2/ 3 1030.6F  
SOLOMONS ISLAND 1936 43 43 130/ 2/ 2 1029.6F  
BISHOPS HEAD MD 1936 45 48 350/ 3/ 6 1030.6F  
PINEY POINT MD 1948 260/ 2/ 3 N/A  
POTOMAC MD 2000 43 43 240/ 4/ 4 1031.2 0  
CAMBRIDGE MD 1936 45 48 1030.7F  
LEWISETTA VA 1936 44 50 CALM / 3 1030.3F  
RAPPAHANNOCK LGT 1936 330/ 12/ 13 1030.9S  
YORK RVR RNG VA 1936 30/ 3/ 3 1030.8F  
YORKTOWN VA 1936 47 320/ 2/ 3 1030.0F  
DOMINION TERM VA 1936 47 CALM / 2 1030.4F  
KIPTOPEKE VA 1936 47 340/ 12/ 13 N/A  
CAPE HENRY VA 1936 320/ 6/ 7 N/A  
WILLOUBY STN VA 1936 50/ 3/ 4 1030.1F  
S CRANEY ISL VA 1936 20/ 3/ 4 1030.0F  
CAPE HENRY BUOY 2000 44 N/A 4/ 8 2/14  
CAPE CHARLES BUO 1951 44 N/A 4/ 9 2/11  
64NM E OF VA BCH 1950 50 51 330/ 6/ 6 1029.6F 5/ 8 5/ 8  
DUCK PIER NC 1936 47 10/ 7/ 8 1029.5F  
44100 DUCK FRF 1945 47 N/A 5/ 9 2/15  
44056 DUCK FRF 2000 47 N/A 4/ 8 2/14  
OREGON INLET NC 1936 49 51 30/ 8/ 9 1029.9F  
HATTERAS NC 1936 59 60 350/ 4/ 5 1029.6F  
DIAMOND SHLS NC 2000 67 73 CALM / 2 1029.8  
CAPE LOOKOUT NC 2000 50/ 6/ 6 1029.8F  

 
 
 
CLICK HERE TO GO TO PREVIOUS BULLETINS.

The Nexlab VA Page
The Nexlab NC Page
The Nexlab MD Page Main Text Page